STARLINK-11152, 60194

Orbit data source: Space-Track

STARLINK-11152, 60194 is a payload satellite owned by SpaceX/Seattle (US) in LEO that was launched on Wed, 03 Jul 2024 UTC via an FALCON 9 launch vehicle from the Air Force Eastern Test Range (AFETR). Payload-class satellites include a variety of spacecraft equipped with specific instruments for various scientific and technological missions. These include communications satellites like Starlink; space stations such as the ISS; scientific satellites like the Hubble; Earth observation satellites from companies like Planet Labs, Umbra, and HawkEye 360; GPS; miniature CubeSats for education and research; and military/defense satellites.

Loading next visibility...
Identifier
60194, 2024-124M
Orbit
LEO
Country
Flag of USUS
Related business
Manufacturer
SpaceX/Seattle
Mission
Operational spacecraft
Bus & Motor
STARLINK V2MD, Unknown motor
Mass
960 kg wet, ~910 kg dry
Launch date (UTC)
2024-07-03 (1 year ago)
Launch vehicle
FALCON 9
Launch site
Air Force Eastern Test Range (AFETR)
Object type
Payload
Rocket body
Debris
Shape & HBR
Unknown shape, 18.1 m
Radar Cross Section
Large (>1 m²)

Expand to show TLE details & history
Last TLE update: 20 hours ago

TLE from 20 hours ago
0 STARLINK-11152
1 60194U 24124M   25302.78549143  .00021836  00000-0  18454-3 0  9991
2 60194  53.1573  86.5975 0002162  75.9118 284.2140 15.69719938 77168
Epoch: 2025-10-29T18:51Z
TLE epoch observation values (Epoch: 2025-10-29T18:51:06.459Z)
Latitude
-0.00003°
Longitude
125.46692°
Altitude
360.256 km
Speed
7.695 km/s
True Right ascension
05h 46m 23s
True Declination
0° 00' 00"
Sunlit
Object was in full shadow at epoch
Visualization orbit readout
Latitude
Unknown
Longitude
Unknown
Altitude
Unknown
Speed
Unknown
Apparent Right ascension
Unknown
Apparent Declination
Unknown
Sunlit
N/A
Visualization observer readout
Local Sidereal Time
10:54:40
Azimuth
Unknown
Elevation
Unknown
Doppler factor
Unknown
Orbital elements
Apogee altitude
361.416 km
Perigee altitude
358.503 km
Semi-major axis
6,738.096 km
Eccentricity
0.00022
Inclination
53.1573°
RAAN
86.5975°
Arg. of periapsis
75.9118°
True anomaly
284.18998°
Mean anomaly
284.214°
Eccentric anomaly
284.20199°
Mean motion
3.92408 °/min
Orbital period
91.74 mins
BSTAR
0.00018454
Loading maneuver chart data...
Computing Atmospheric mass density...
Loading historical data...
Loading historical data...
Loading historical data...
Loading historical data...
Loading historical data...
Loading historical data...
Loading historical data...

Documentation

Showing up to 5 results
|